Deelen, Netherlands

9:55 AM CEST on May 27, 2017 (GMT +0200)
Deelen Air Base

Weather History for EHDL - June, 2013

Change the Weather History Date:

Sunday, June 23, 2013

  Actual Average Record
Temperature  
Mean Temperature 58 °F -  
Max Temperature 64 °F 69 °F 86 °F (2005)
Min Temperature 53 °F 56 °F 41 °F (2014)
Degree Days  
Heating Degree Days 6    
Growing Degree Days 8 (Base 50)    
Moisture  
Dew Point 53 °F    
Average Humidity 84    
Maximum Humidity 94    
Minimum Humidity 63    
Precipitation  
Precipitation 0.00 in - - ()
Sea Level Pressure  
Sea Level Pressure 29.80 in    
Wind  
Wind Speed 12 mph ()    
Max Wind Speed 24 mph    
Max Gust Speed 29 mph    
Visibility 6.1 miles    
Events Rain    
Averages and records for this station are not official NWS values.
T = Trace of Precipitation, MM = Missing Value Source: Averaged Metar Reports

Daily Weather History Graph

Daily Weather History Graph

Search for Another Location

Airport or City:

Trip Planner

Search our weather history database for the weather conditions in past years. The results will help you decide how hot, cold, wet, or windy it might be!

Date:

Astronomy

Jun. 23, 2013 Rise Set
Actual Time 5:16 AM CEST 10:00 PM CEST
Civil Twilight 4:27 AM CEST 10:50 PM CEST
Nautical Twilight 3:08 AM CEST 12:08 AM CEST
Astronomical Twilight Sun does not set Sun does not set
Moon 9:46 PM CEST (6/23) 5:25 AM CEST (6/23)
Length of Visible Light 18h 22m
Length of Day
16h 44m
Full, 100% of the Moon is Illuminated
Jun 23
Full
Jun 23
Full
Jun 30
Last Quarter
Jul 8
New
Jul 16
First Quarter

Hourly Weather History & Observations

Time (CEST) Temp. Dew Point Humidity Pressure Visibility Wind Dir Wind Speed Gust Speed Precip Events Conditions
12:25 AM 57.2 °F 55.4 °F 94% 29.80 in 6.2 mi SSW 11.5 mph - N/A   Mostly Cloudy
12:55 AM 57.2 °F 53.6 °F 88% 29.77 in 6.2 mi SSW 10.4 mph - N/A   Overcast
1:25 AM 55.4 °F 53.6 °F 94% 29.77 in 6.2 mi SSW 11.5 mph - N/A   Mostly Cloudy
1:55 AM 55.4 °F 51.8 °F 88% 29.77 in 6.2 mi SSW 12.7 mph - N/A   Scattered Clouds
2:25 AM 55.4 °F 51.8 °F 88% 29.77 in 6.2 mi SSW 11.5 mph - N/A   Overcast
2:55 AM 55.4 °F 51.8 °F 88% 29.77 in 6.2 mi SSW 10.4 mph - N/A   Mostly Cloudy
3:25 AM 55.4 °F 51.8 °F 88% 29.77 in 6.2 mi South 10.4 mph - N/A   Mostly Cloudy
3:55 AM 53.6 °F 51.8 °F 94% 29.77 in 6.2 mi South 11.5 mph - N/A   Mostly Cloudy
4:25 AM 53.6 °F 51.8 °F 94% 29.77 in 6.2 mi South 11.5 mph - N/A   Mostly Cloudy
4:55 AM 53.6 °F 51.8 °F 94% 29.77 in 6.2 mi SSW 11.5 mph - N/A   Mostly Cloudy
5:25 AM 53.6 °F 51.8 °F 94% 29.77 in 6.2 mi South 10.4 mph - N/A   Mostly Cloudy
5:55 AM 55.4 °F 51.8 °F 88% 29.74 in 6.2 mi South 11.5 mph - N/A   Overcast
6:25 AM 55.4 °F 51.8 °F 88% 29.74 in 6.2 mi South 11.5 mph - N/A   Mostly Cloudy
6:55 AM 55.4 °F 50.0 °F 82% 29.74 in 6.2 mi SSW 13.8 mph - N/A Rain Light Rain
7:25 AM 55.4 °F 51.8 °F 88% 29.74 in 6.2 mi SSW 15.0 mph - N/A   Overcast
7:55 AM 55.4 °F 50.0 °F 82% 29.74 in 6.2 mi SSW 15.0 mph - N/A   Overcast
8:25 AM 57.2 °F 50.0 °F 77% 29.74 in 6.2 mi SSW 16.1 mph - N/A   Overcast
8:55 AM 57.2 °F 50.0 °F 77% 29.74 in 6.2 mi SSW 17.3 mph - N/A   Overcast
9:25 AM 57.2 °F 51.8 °F 82% 29.77 in 6.2 mi SSW 16.1 mph - N/A   Overcast
9:55 AM 57.2 °F 51.8 °F 82% 29.77 in 6.2 mi SSW 15.0 mph - N/A   Overcast
10:25 AM 57.2 °F 53.6 °F 88% 29.77 in 6.2 mi SSW 17.3 mph - N/A   Overcast
10:55 AM 57.2 °F 51.8 °F 82% 29.77 in 6.2 mi SSW 17.3 mph - N/A   Overcast
11:25 AM 59.0 °F 51.8 °F 77% 29.77 in 6.2 mi SSW 17.3 mph - N/A   Overcast
11:55 AM 59.0 °F 53.6 °F 82% 29.77 in 6.2 mi SSW 17.3 mph 28.8 mph N/A   Mostly Cloudy
12:25 PM 59.0 °F 51.8 °F 77% 29.80 in 6.2 mi SW 16.1 mph - N/A   Overcast
12:55 PM 60.8 °F 51.8 °F 72% 29.80 in 6.2 mi SSW 15.0 mph - N/A   Mostly Cloudy
1:25 PM 60.8 °F 51.8 °F 72% 29.77 in 3.1 mi SSW 24.2 mph - N/A   Haze
1:55 PM 60.8 °F 51.8 °F 72% 29.80 in 6.2 mi SSW 17.3 mph - N/A   Mostly Cloudy
2:25 PM 59.0 °F 53.6 °F 82% 29.80 in 6.2 mi SW 17.3 mph - N/A Rain Light Rain
2:55 PM 60.8 °F 53.6 °F 77% 29.80 in 6.2 mi SW 16.1 mph - N/A   Overcast
3:25 PM 60.8 °F 53.6 °F 77% 29.80 in 6.2 mi SSW 15.0 mph - N/A   Mostly Cloudy
3:55 PM 62.6 °F 53.6 °F 72% 29.83 in 6.2 mi SSW 18.4 mph - N/A   Overcast
4:25 PM 62.6 °F 50.0 °F 63% 29.83 in 6.2 mi SW 19.6 mph - N/A   Mostly Cloudy
4:55 PM 64.4 °F 51.8 °F 64% 29.83 in 6.2 mi SSW 18.4 mph - N/A   Mostly Cloudy
5:25 PM 60.8 °F 51.8 °F 72% 29.83 in 6.2 mi SSW 17.3 mph - N/A   Overcast
5:55 PM 62.6 °F 51.8 °F 68% 29.83 in 6.2 mi SSW 16.1 mph 27.6 mph N/A   Mostly Cloudy
6:25 PM 59.0 °F 53.6 °F 82% 29.83 in 6.2 mi SSW 15.0 mph - N/A   Overcast
6:55 PM 59.0 °F 53.6 °F 82% 29.86 in 3.1 mi WSW 13.8 mph - N/A Rain Rain Showers
7:25 PM 57.2 °F 55.4 °F 94% 29.86 in 5.6 mi SW 11.5 mph - N/A Rain Light Rain Showers
7:55 PM 57.2 °F 53.6 °F 88% 29.86 in 6.2 mi SSW 11.5 mph - N/A Rain Light Rain
8:25 PM 57.2 °F 53.6 °F 88% 29.86 in 6.2 mi SSW 10.4 mph - N/A   Overcast
8:55 PM 57.2 °F 55.4 °F 94% 29.86 in 6.2 mi SSW 9.2 mph - N/A   Overcast
9:25 PM 57.2 °F 55.4 °F 94% 29.86 in 6.2 mi SW 9.2 mph - N/A   Mostly Cloudy
9:55 PM 57.2 °F 53.6 °F 88% 29.86 in 6.2 mi SW 10.4 mph - N/A   Mostly Cloudy
10:25 PM 55.4 °F 53.6 °F 94% 29.89 in 6.2 mi SW 10.4 mph - N/A   Mostly Cloudy
10:55 PM 55.4 °F 53.6 °F 94% 29.89 in 6.2 mi SSW 9.2 mph - N/A   Mostly Cloudy
11:25 PM 55.4 °F 53.6 °F 94% 29.89 in 6.2 mi SSW 9.2 mph - N/A   Mostly Cloudy
11:55 PM 57.2 °F 53.6 °F 88% 29.89 in 6.2 mi SSW 10.4 mph - N/A   Mostly Cloudy